Location: Ferintosh
(52.7647°N, 112.9692°W)
Time: 00:04:44
(UTC+00:00)

Vanguard 1 Rocket - Pass Details

Date: 27 May 2024
Orbit: 649 x 4221 km, 34.3° (Epoch: 13 June)

Event Time Altitude Azimuth Distance (km) Brightness Sun altitude
Rises 17:23:02 0° 248° (WSW) 8,238 12.1 50.5°
Reaches altitude 10° 17:29:48 10° 242° (WSW) 6,872 11.8 51.2°
Maximum altitude 17:47:26 37° 186° (S) 3,606 11.5 53.1°
Drops below altitude 10° 17:57:50 10° 124° (SE) 4,098 11.5 54.1°
Sets 18:00:42 0° 115° (ESE) 4,711 11.5 54.4°
